Time,TemperatureF,DewpointF,PressureIn,WindDirection,WindDirectionDegrees,WindSpeedMPH,WindSpeedGustMPH,Humidity,HourlyPrecipIn,Conditions,Clouds,dailyrainin,SoftwareType,DateUTC
2013-03-20 00:04:00,10.3,-2.0,30.19,WNW,300,12.0,25.0,55,0.00,,,-99.99,,2013-03-20 05:04:00,
2013-03-20 00:34:00,10.5,-2.0,30.19,WNW,300,12.0,25.0,55,0.00,,,-99.99,,2013-03-20 05:34:00,
2013-03-20 01:04:00,9.4,-2.0,30.19,WNW,300,13.0,21.0,55,0.00,,,-99.99,,2013-03-20 06:04:00,
2013-03-20 01:34:00,9.1,-2.0,30.19,WNW,300,13.0,21.0,55,0.00,,,-99.99,,2013-03-20 06:34:00,
2013-03-20 02:04:00,8.6,-2.0,30.19,WNW,300,12.0,21.0,60,0.00,,,-99.99,,2013-03-20 07:04:00,
2013-03-20 02:34:00,8.5,-2.0,30.19,WNW,300,12.0,21.0,60,0.00,,,-99.99,,2013-03-20 07:34:00,
2013-03-20 03:04:00,8.6,-2.0,30.19,WNW,300,13.0,0.0,60,0.00,,,-99.99,,2013-03-20 08:04:00,
2013-03-20 03:34:00,8.6,-2.0,30.19,WNW,300,13.0,0.0,60,0.00,,,-99.99,,2013-03-20 08:34:00,
2013-03-20 04:04:00,7.8,-2.0,30.19,West,280,11.0,0.0,65,0.00,,,-99.99,,2013-03-20 09:04:00,
2013-03-20 04:34:00,7.7,-2.0,30.19,West,280,11.0,0.0,65,0.00,,,-99.99,,2013-03-20 09:34:00,
2013-03-20 05:04:00,7.7,-2.0,30.19,West,280,11.0,0.0,65,0.00,,,-99.99,,2013-03-20 10:04:00,
2013-03-20 05:34:00,7.1,-2.0,30.19,West,280,11.0,0.0,65,0.00,,,-99.99,,2013-03-20 10:34:00,
2013-03-20 06:04:00,6.8,-2.0,30.20,WNW,290,14.0,21.0,65,0.00,,,-99.99,,2013-03-20 11:04:00,
2013-03-20 06:34:00,6.7,-2.0,30.20,WNW,290,14.0,21.0,65,0.00,,,-99.99,,2013-03-20 11:34:00,
2013-03-20 07:04:00,6.5,-4.0,30.21,WNW,290,11.0,0.0,65,0.00,,,-99.99,,2013-03-20 12:04:00,
2013-03-20 07:34:00,7.6,-4.0,30.21,WNW,290,11.0,0.0,65,0.00,,,-99.99,,2013-03-20 12:34:00,
2013-03-20 08:04:00,6.5,-4.0,30.21,WNW,300,10.0,0.0,65,0.00,,,-99.99,,2013-03-20 13:04:00,
2013-03-20 08:34:00,7.6,-4.0,30.21,WNW,300,10.0,0.0,65,0.00,,,-99.99,,2013-03-20 13:34:00,
2013-03-20 09:04:00,8.5,-2.0,30.20,WNW,290,17.0,25.0,60,0.00,,,-99.99,,2013-03-20 14:04:00,
2013-03-20 09:34:00,9.6,-2.0,30.20,WNW,290,17.0,25.0,60,0.00,,,-99.99,,2013-03-20 14:34:00,
2013-03-20 10:04:00,10.2,-2.0,30.19,WNW,300,18.0,27.0,55,0.00,,,-99.99,,2013-03-20 15:04:00,
2013-03-20 10:34:00,12.1,-2.0,30.19,WNW,300,18.0,27.0,55,0.00,,,-99.99,,2013-03-20 15:34:00,
2013-03-20 11:04:00,12.8,0.0,30.18,NW,310,23.0,28.0,56,0.00,,,-99.99,,2013-03-20 16:04:00,
2013-03-20 11:34:00,13.9,0.0,30.18,NW,310,23.0,28.0,56,0.00,,,-99.99,,2013-03-20 16:34:00,
2013-03-20 12:04:00,14.9,1.0,30.17,WNW,300,21.0,27.0,52,0.00,,,-99.99,,2013-03-20 17:04:00,
2013-03-20 12:34:00,15.2,1.0,30.17,WNW,300,21.0,27.0,52,0.00,,,-99.99,,2013-03-20 17:34:00,
2013-03-20 13:04:00,16.9,1.0,30.15,WNW,300,18.0,26.0,48,0.00,,,-99.99,,2013-03-20 18:04:00,
2013-03-20 13:34:00,17.3,1.0,30.15,WNW,300,18.0,26.0,48,0.00,,,-99.99,,2013-03-20 18:34:00,
2013-03-20 14:04:00,17.3,3.0,30.13,WNW,290,20.0,26.0,48,0.00,,,-99.99,,2013-03-20 19:04:00,
2013-03-20 14:34:00,18.3,3.0,30.13,WNW,290,20.0,26.0,48,0.00,,,-99.99,,2013-03-20 19:34:00,
2013-03-20 15:04:00,19.4,3.0,30.12,WNW,300,18.0,27.0,48,0.00,,,-99.99,,2013-03-20 20:04:00,
2013-03-20 15:34:00,19.2,3.0,30.12,WNW,300,18.0,27.0,48,0.00,,,-99.99,,2013-03-20 20:34:00,
2013-03-20 16:04:00,20.1,3.0,30.11,NW,320,17.0,25.0,44,0.00,,,-99.99,,2013-03-20 21:04:00,
2013-03-20 16:34:00,19.9,3.0,30.11,NW,320,17.0,25.0,44,0.00,,,-99.99,,2013-03-20 21:34:00,
2013-03-20 17:04:00,20.6,3.0,30.11,WNW,300,12.0,0.0,44,0.00,,,-99.99,,2013-03-20 22:04:00,
2013-03-20 17:34:00,20.4,3.0,30.11,WNW,300,12.0,0.0,44,0.00,,,-99.99,,2013-03-20 22:34:00,
2013-03-20 18:04:00,20.4,3.0,30.11,WNW,300,11.0,0.0,44,0.00,,,-99.99,,2013-03-20 23:04:00,
2013-03-20 18:34:00,19.7,3.0,30.11,WNW,300,11.0,0.0,44,0.00,,,-99.99,,2013-03-20 23:34:00,
2013-03-20 19:04:00,19.7,3.0,30.11,NW,310,11.0,0.0,48,0.00,,,-99.99,,2013-03-21 00:04:00,
2013-03-20 19:34:00,18.6,3.0,30.11,NW,310,11.0,0.0,48,0.00,,,-99.99,,2013-03-21 00:34:00,
2013-03-20 20:04:00,17.9,3.0,30.11,WNW,300,9.0,0.0,52,0.00,,,-99.99,,2013-03-21 01:04:00,
2013-03-20 21:04:00,16.8,3.0,30.12,NW,310,9.0,0.0,52,0.00,,,-99.99,,2013-03-21 02:04:00,
2013-03-20 21:34:00,16.2,3.0,30.12,NW,310,9.0,0.0,52,0.00,,,-99.99,,2013-03-21 02:34:00,
2013-03-20 22:04:00,15.0,3.0,30.12,West,280,9.0,0.0,61,0.00,,,-99.99,,2013-03-21 03:04:00,
2013-03-20 22:34:00,15.0,3.0,30.12,West,280,9.0,0.0,61,0.00,,,-99.99,,2013-03-21 03:34:00,
2013-03-20 23:04:00,13.8,3.0,30.13,WNW,290,6.0,0.0,66,0.00,,,-99.99,,2013-03-21 04:04:00,
2013-03-20 23:34:00,12.5,3.0,30.13,WNW,290,6.0,0.0,66,0.00,,,-99.99,,2013-03-21 04:34:00,